Howell, MI

5:35 AM EDT on April 24, 2018 (GMT -0400)
Livingston County

Weather History for KOZW - March, 2015

Change the Weather History Date:

Sunday, March 15, 2015

  Actual Average Record
Temperature  
Mean Temperature 40 °F -  
Max Temperature 50 °F 41 °F 76 °F (2012)
Min Temperature 29 °F 24 °F 13 °F (2017)
Degree Days  
Heating Degree Days 26    
Moisture  
Dew Point 30 °F    
Average Humidity 69    
Maximum Humidity 90    
Minimum Humidity 46    
Precipitation  
Precipitation 0.00 in - - ()
Sea Level Pressure  
Sea Level Pressure 30.13 in    
Wind  
Wind Speed 9 mph (West)    
Max Wind Speed 15 mph    
Max Gust Speed 23 mph    
Visibility 10 miles    
Events      
Averages and records for this station are not official NWS values.
T = Trace of Precipitation, MM = Missing Value Source: NWS Daily Summary

Daily Weather History Graph

Daily Weather History Graph

Search for Another Location

Airport or City:

Astronomy

Mar. 15, 2015 Rise Set
Actual Time 7:48 AM EDT 7:42 PM EDT
Civil Twilight 7:20 AM EDT 8:10 PM EDT
Nautical Twilight 6:47 AM EDT 8:43 PM EDT
Astronomical Twilight 6:14 AM EDT 9:16 PM EDT
Moon 4:15 AM EDT (3/15) 2:24 PM EDT (3/15)
Length of Visible Light 12h 49m
Length of Day
11h 53m
Waning Crescent, 29% of the Moon is Illuminated
Mar 15
Waning Crescent
Mar 20
New
Mar 27
First Quarter
Apr 4
Full
Apr 11
Last Quarter

Hourly Weather History & Observations

Time (EDT) Temp. Windchill Dew Point Humidity Pressure Visibility Wind Dir Wind Speed Gust Speed Precip Events Conditions
12:14 AM 36.3 °F 27.5 °F 28.4 °F 73% 30.04 in 10.0 mi WNW 13.8 mph 19.6 mph N/A   Overcast
12:35 AM 36.7 °F 29.4 °F 28.0 °F 71% 30.04 in 10.0 mi WNW 10.4 mph 23.0 mph N/A   Overcast
12:55 AM 36.0 °F 28.5 °F 28.4 °F 74% 30.05 in 10.0 mi WNW 10.4 mph 17.3 mph N/A   Overcast
1:14 AM 36.1 °F 28.7 °F 28.4 °F 73% 30.06 in 10.0 mi NW 10.4 mph - N/A   Overcast
1:35 AM 35.6 °F 26.2 °F 28.0 °F 74% 30.06 in 10.0 mi NNW 15.0 mph 21.9 mph N/A   Overcast
1:55 AM 35.1 °F 26.4 °F 28.2 °F 76% 30.07 in 10.0 mi NNW 12.7 mph 18.4 mph N/A   Overcast
2:14 AM 34.7 °F 25.5 °F 28.0 °F 77% 30.07 in 10.0 mi NNW 13.8 mph 17.3 mph N/A   Overcast
2:35 AM 34.7 °F 27.5 °F 28.2 °F 77% 30.08 in 10.0 mi NW 9.2 mph - N/A   Overcast
2:55 AM 34.7 °F 26.9 °F 28.4 °F 78% 30.09 in 10.0 mi NNW 10.4 mph - N/A   Overcast
3:14 AM 34.5 °F 25.3 °F 28.0 °F 77% 30.08 in 10.0 mi NW 13.8 mph 23.0 mph N/A   Overcast
3:35 AM 34.0 °F 26.0 °F 27.5 °F 77% 30.09 in 10.0 mi NW 10.4 mph 18.4 mph N/A   Overcast
3:55 AM 34.0 °F 26.6 °F 27.9 °F 78% 30.09 in 10.0 mi NNW 9.2 mph 19.6 mph N/A   Overcast
4:14 AM 33.8 °F 25.8 °F 27.9 °F 79% 30.09 in 10.0 mi NW 10.4 mph - N/A   Overcast
4:35 AM 33.3 °F 25.1 °F 27.5 °F 79% 30.09 in 10.0 mi NNW 10.4 mph 17.3 mph N/A   Overcast
4:55 AM 33.4 °F 24.3 °F 27.9 °F 80% 30.10 in 10.0 mi NW 12.7 mph 18.4 mph N/A   Overcast
5:14 AM 33.3 °F 26.4 °F 27.9 °F 81% 30.12 in 10.0 mi NW 8.1 mph 17.3 mph N/A   Overcast
5:35 AM 32.9 °F 25.3 °F 27.9 °F 82% 30.12 in 10.0 mi NW 9.2 mph 16.1 mph N/A   Overcast
5:55 AM 32.9 °F 27.5 °F 28.0 °F 82% 30.12 in 10.0 mi NNW 5.8 mph - N/A   Overcast
6:14 AM 32.9 °F 25.9 °F 28.2 °F 83% 30.13 in 10.0 mi NNW 8.1 mph - N/A   Overcast
6:35 AM 32.7 °F 27.3 °F 28.0 °F 83% 30.13 in 10.0 mi NNW 5.8 mph - N/A   Overcast
6:55 AM 32.0 °F 26.4 °F 27.9 °F 85% 30.15 in 10.0 mi NW 5.8 mph - N/A   Mostly Cloudy
7:14 AM 31.8 °F 27.3 °F 27.7 °F 85% 30.16 in 10.0 mi NW 4.6 mph - N/A   Scattered Clouds
7:35 AM 30.2 °F 25.4 °F 27.0 °F 88% 30.17 in 10.0 mi West 4.6 mph - N/A   Clear
7:55 AM 30.2 °F 25.4 °F 27.3 °F 89% 30.18 in 10.0 mi West 4.6 mph - N/A   Clear
8:14 AM 29.8 °F 24.9 °F 26.6 °F 88% 30.18 in 10.0 mi West 4.6 mph - N/A   Clear
8:35 AM 29.7 °F 24.7 °F 27.0 °F 90% 30.19 in 10.0 mi WNW 4.6 mph - N/A   Scattered Clouds
8:54 AM 30.7 °F 27.3 °F 28.2 °F 90% 30.19 in 7.0 mi WNW 3.5 mph - N/A   Mostly Cloudy
9:15 AM 31.6 °F 27.0 °F 28.8 °F 89% 30.20 in 10.0 mi WNW 4.6 mph - N/A   Overcast
9:35 AM 32.4 °F 26.9 °F 28.9 °F 87% 30.20 in 10.0 mi NW 5.8 mph - N/A   Overcast
9:54 AM 32.9 °F 28.5 °F 29.1 °F 86% 30.21 in 10.0 mi NW 4.6 mph - N/A   Overcast
10:15 AM 32.9 °F 27.5 °F 28.4 °F 84% 30.22 in 10.0 mi NNW 5.8 mph - N/A   Overcast
10:35 AM 33.8 °F 27.0 °F 28.9 °F 82% 30.23 in 10.0 mi WNW 8.1 mph - N/A   Overcast
10:54 AM 33.8 °F 29.6 °F 28.6 °F 81% 30.23 in 10.0 mi NNW 4.6 mph - N/A   Overcast
11:15 AM 35.1 °F - 29.1 °F 79% 30.23 in 10.0 mi Calm Calm - N/A   Scattered Clouds
11:35 AM 36.1 °F - 29.3 °F 76% 30.23 in 10.0 mi Calm Calm - N/A   Scattered Clouds
11:54 AM 37.4 °F 32.8 °F 30.2 °F 75% 30.23 in 10.0 mi NW 5.8 mph - N/A   Scattered Clouds
12:15 PM 39.2 °F 35.9 °F 30.4 °F 71% 30.23 in 10.0 mi NNW 4.6 mph - N/A   Clear
12:35 PM 40.1 °F 38.0 °F 31.1 °F 70% 30.22 in 10.0 mi NW 3.5 mph - N/A   Clear
12:54 PM 41.4 °F 39.4 °F 31.3 °F 67% 30.22 in 10.0 mi WSW 3.5 mph - N/A   Clear
1:15 PM 42.6 °F 40.9 °F 31.8 °F 66% 30.21 in 10.0 mi WSW 3.5 mph - N/A   Clear
1:34 PM 43.9 °F 41.3 °F 32.0 °F 63% 30.20 in 10.0 mi SW 4.6 mph - N/A   Clear
1:55 PM 43.9 °F 41.3 °F 31.5 °F 62% 30.20 in 10.0 mi WSW 4.6 mph - N/A   Clear
2:15 PM 45.5 °F 43.2 °F 32.2 °F 60% 30.19 in 10.0 mi WSW 4.6 mph - N/A   Clear
2:34 PM 46.8 °F - 32.0 °F 57% 30.19 in 10.0 mi WSW 6.9 mph - N/A   Clear
2:55 PM 46.6 °F - 32.7 °F 59% 30.19 in 10.0 mi WSW 8.1 mph - N/A   Clear
3:15 PM 47.5 °F - 31.8 °F 55% 30.18 in 10.0 mi SW 8.1 mph - N/A   Clear
3:34 PM 48.0 °F - 31.1 °F 52% 30.17 in 10.0 mi SW 8.1 mph - N/A   Clear
3:55 PM 48.7 °F - 31.5 °F 51% 30.16 in 10.0 mi SW 8.1 mph - N/A   Clear
4:15 PM 50.0 °F - 30.6 °F 47% 30.15 in 10.0 mi WSW 4.6 mph - N/A   Clear
4:34 PM 50.4 °F - 30.4 °F 46% 30.15 in 10.0 mi SW 8.1 mph - N/A   Clear
4:55 PM 50.7 °F - 32.2 °F 49% 30.15 in 10.0 mi SW 5.8 mph - N/A   Clear
5:15 PM 50.2 °F - 32.7 °F 51% 30.15 in 10.0 mi SW 9.2 mph - N/A   Clear
5:34 PM 49.6 °F - 32.0 °F 51% 30.13 in 10.0 mi WSW 6.9 mph - N/A   Clear
5:55 PM 50.5 °F - 32.0 °F 49% 30.12 in 10.0 mi SW 8.1 mph - N/A   Clear
6:15 PM 49.1 °F - 31.8 °F 51% 30.11 in 10.0 mi SW 5.8 mph - N/A   Clear
6:34 PM 49.3 °F - 31.3 °F 50% 30.10 in 10.0 mi SSW 4.6 mph - N/A   Clear
6:55 PM 48.6 °F - 30.9 °F 51% 30.10 in 10.0 mi SSW 4.6 mph - N/A   Clear
7:15 PM 47.7 °F - 30.4 °F 51% 30.09 in 10.0 mi SSW 3.5 mph - N/A   Clear
7:34 PM 47.3 °F - 30.6 °F 52% 30.08 in 10.0 mi South 3.5 mph - N/A   Clear
7:55 PM 46.0 °F 43.1 °F 30.2 °F 54% 30.07 in 10.0 mi SSE 5.8 mph - N/A   Clear
8:15 PM 44.4 °F 42.0 °F 30.0 °F 57% 30.06 in 10.0 mi SSE 4.6 mph - N/A   Clear
8:34 PM 43.9 °F 39.9 °F 30.2 °F 59% 30.05 in 10.0 mi South 6.9 mph - N/A   Clear
8:55 PM 45.0 °F 40.6 °F 30.2 °F 56% 30.04 in 10.0 mi South 8.1 mph - N/A   Clear
9:15 PM 45.5 °F 40.8 °F 30.7 °F 56% 30.03 in 10.0 mi South 9.2 mph - N/A   Clear
9:34 PM 45.7 °F 41.5 °F 31.1 °F 57% 30.03 in 10.0 mi South 8.1 mph - N/A   Clear
9:55 PM 45.7 °F 41.5 °F 31.5 °F 58% 30.03 in 10.0 mi South 8.1 mph - N/A   Clear
10:14 PM 44.8 °F 41.0 °F 31.6 °F 60% 30.03 in 10.0 mi South 6.9 mph - N/A   Clear
10:35 PM 45.3 °F 41.6 °F 32.0 °F 60% 30.03 in 10.0 mi South 6.9 mph - N/A   Clear
10:55 PM 44.8 °F 41.6 °F 32.0 °F 61% 30.03 in 10.0 mi South 5.8 mph - N/A   Clear
11:14 PM 45.0 °F 41.2 °F 32.4 °F 61% 30.03 in 10.0 mi South 6.9 mph - N/A   Clear
11:35 PM 45.1 °F 41.4 °F 33.1 °F 63% 30.02 in 10.0 mi South 6.9 mph - N/A   Clear
11:55 PM 45.1 °F 41.4 °F 33.8 °F 65% 30.01 in 10.0 mi South 6.9 mph - N/A   Clear